Zurück zum Katalog

STARLINK-37635

AktivKommunikationSSO
NORAD 69029·PAYLOAD·🇺🇸 United States

Gestartet May 6, 2026 von Vandenberg Space Force Base

Loading…

Nächste Überflüge (nächste 24 Stunden)

TLE

AktuellSource: CelesTrak SupGP

Epoche: Sep 15, 2026, 03:57 UTC

1 69029C 26101E   26258.16506944 -.00035538  00000+0 -11030-2 0  2584
2 69029  97.2852 111.6872 0002369  92.4432  91.0896 15.33461451    18

Verfolge STARLINK-37635 in Echtzeit mit AllMySat

Download on the App Store